sat.trackr.live / text

‹ back to catalog

KUIPER-00066

NORAD 64526 · 2025-134AC

PAYLOAD ACTIVE UNKNOWN

§ Identity

Operator
Country
US
Launch date
2025-06-23
Launch site
AFETR
Launch vehicle
Mass (kg)
RCS (m²)

External: N2YO · Heavens-Above · Gunter

§ Orbital elements

Epoch: 2026-09-21T21:32:26.053728Z

Period
97.30 min
Inclination
51.9027°
Eccentricity
0.0000494
Mean motion
14.79941854 rev/d
Perigee alt
629.2 km
Apogee alt
629.9 km
Semi-major
7,007.6 km
B*
3.0124e-4
RAAN
30.3833°
Arg perigee
124.0230°
Mean anomaly
236.0779°
Rev number
6,990

§ Raw data

KUIPER-000661 64526U 25134AC  26264.89752377  .00002077  00000+0  30124-3 0  99942 64526  51.9027  30.3833 0000494 124.0230 236.0779 14.79941854 69908

JSON: /api/v1/satellites/64526 · /tle

For live sub-satellite position, see the globe view (requires WebGL).

§ Visibility from observer

Set your observer location to see the next 7 days of passes ≥ 10°. The values pass through the URL so the page stays shareable.

No JS? Fill the form by hand. The geolocation button needs JavaScript.